Location: ?
(35.4996°N, 139.3166°E)
Time: 07:14:48
(UTC+00:00)

CZ-2C R/B - Visible Passes

Search period start: 13 July 2024 00:00
Search period end: 23 July 2024 00:00
Orbit: 665 x 779 km, 98.4° (Epoch: 12 July)

Date Brightness Start Highest point End Pass type
(mag) Time Alt. Az. Time Alt. Az. Time Alt. Az.
13 Jul 4.7 17:13:07 10° NE 17:16:24 18° E 17:19:44 10° SE visible
13 Jul 2.9 18:50:01 10° N 18:54:38 43° WNW 18:59:21 10° SW visible
14 Jul 2.9 18:00:36 10° NNE 18:05:27 57° E 18:10:07 11° S visible
15 Jul 4.8 17:12:40 10° NE 17:15:58 18° E 17:19:19 10° SE visible
15 Jul 2.9 18:49:33 10° N 18:54:12 44° WNW 18:58:57 10° SW visible
16 Jul 3.0 18:00:09 10° NNE 18:05:01 57° E 18:09:38 12° S visible
17 Jul 4.8 17:12:13 10° NE 17:15:32 18° E 17:18:53 10° SE visible
17 Jul 2.9 18:49:05 10° N 18:53:45 44° WNW 18:58:33 10° SW visible
18 Jul 3.0 17:59:41 10° NNE 18:04:34 56° E 18:09:08 12° S visible
19 Jul 4.8 17:11:46 10° NE 17:15:06 18° E 17:18:26 10° SE visible
19 Jul 2.9 18:48:36 10° N 18:53:20 45° WNW 18:58:09 10° SW visible
20 Jul 3.0 17:59:13 10° NNE 18:04:08 56° E 18:08:37 13° S visible
21 Jul 4.8 17:11:19 10° NE 17:14:38 17° E 17:17:59 10° SE visible
21 Jul 2.9 18:48:06 10° N 18:52:52 46° WNW 18:57:44 10° SW visible
22 Jul 3.1 17:58:45 10° NNE 18:03:41 55° E 18:08:06 13° S visible
